EW8780 Weather Reports


Display with metric or nautical units.
time (UTC)temp
F
wind
direction
speed
MPH
gust
MPH
rain 1hr
in
rain 24hr
in
rain mn
in
humidity
%
barometer
mb
20260831200049 67 230 3.0 9.0 0.00 0.00 0.00 74 1009.1
20260831194547 67 224 2.0 6.0 0.00 0.00 0.00 75 1009.1
20260831193045 67 190 2.0 6.0 0.00 0.00 0.00 75 1009.1
20260831191543 66 202 3.0 7.0 0.00 0.00 0.00 76 1009.1
20260831190041 65 239 1.0 4.0 0.00 0.00 0.00 78 1009.1
20260831184540 64 257 0.0 2.0 0.00 0.00 0.00 78 1009.1
20260831183036 63 224 0.0 3.0 0.00 0.00 0.00 80 1009.0
20260831181535 62 223 1.0 5.0 0.00 0.00 0.00 81 1009.0
20260831180033 61 207 0.0 2.0 0.00 0.00 0.00 84 1009.1
20260831174532 61 207 0.0 2.0 0.00 0.00 0.00 83 1009.1
20260831173029 60 208 2.0 4.0 0.00 0.00 0.00 84 1009.1
20260831171527 60 212 0.0 0.0 0.00 0.00 0.00 85 1008.9
20260831170028 59 187 0.0 0.0 0.00 0.00 0.00 87 1008.8
20260831164522 58 187 0.0 0.0 0.00 0.00 0.00 90 1008.7
20260831163015 58 184 0.0 0.0 0.00 0.00 0.00 92 1008.7
20260831161517 57 183 0.0 0.0 0.00 0.00 0.00 94 1008.8
20260831160012 56 185 0.0 0.0 0.00 0.00 0.00 95 1008.9
20260831154504 55 111 0.0 0.0 0.00 0.00 0.00 95 1008.9
20260831153003 56 103 0.0 0.0 0.00 0.00 0.00 95 1008.8
20260831151607 55 99 0.0 0.0 0.00 0.00 0.00 96 1008.9
20260831150058 54 91 0.0 0.0 0.00 0.00 0.00 96 1008.7
20260831144554 54 91 0.0 0.0 0.00 0.00 0.00 96 1008.6
20260831143109 53 91 0.0 0.0 0.00 0.00 0.00 95 1008.3
20260831141559 51 91 0.0 0.0 0.00 0.00 0.00 95 1008.3
20260831140053 51 91 0.0 0.0 0.00 0.00 0.00 95 1008.1
20260831134551 51 91 0.0 0.0 0.00 0.00 0.00 95 1008.0
20260831133050 51 91 0.0 0.0 0.00 0.00 0.00 95 1007.9
20260831131550 51 91 0.0 0.0 0.00 0.00 0.00 95 1007.8
20260831130052 51 91 0.0 0.0 0.00 0.00 0.00 95 1007.9
20260831124547 51 91 0.0 0.0 0.00 0.00 0.00 95 1007.9
20260831123045 51 91 0.0 0.0 0.00 0.00 0.00 95 1007.8
20260831121544 51 91 0.0 0.0 0.00 0.00 0.00 95 1007.9
20260831120043 51 91 0.0 0.0 0.00 0.00 0.00 95 1007.9
20260831114549 52 91 0.0 0.0 0.00 0.00 0.00 95 1008.0
20260831113040 52 91 0.0 0.0 0.00 0.00 0.00 94 1008.1
20260831111544 52 91 0.0 0.0 0.00 0.00 0.00 94 1008.1
20260831110049 52 91 0.0 0.0 0.00 0.00 0.00 94 1008.0
20260831104541 52 91 0.0 0.0 0.00 0.00 0.00 94 1008.0
20260831103039 52 91 0.0 0.0 0.00 0.00 0.00 94 1008.0
20260831101543 52 91 0.0 0.0 0.00 0.00 0.00 94 1008.0
20260831100033 52 91 0.0 0.0 0.00 0.00 0.00 94 1008.1
20260831094539 52 91 0.0 0.0 0.00 0.00 0.00 94 1008.1
20260831093032 53 91 0.0 0.0 0.00 0.00 0.00 94 1008.1
20260831091541 53 91 0.0 0.0 0.00 0.00 0.00 94 1008.1
20260831090029 53 94 0.0 0.0 0.00 0.00 0.00 94 1008.2
20260831084528 53 94 0.0 0.0 0.00 0.00 0.00 94 1008.2
20260831083026 53 94 0.0 0.0 0.00 0.00 0.00 94 1008.4
20260831081524 53 94 0.0 0.0 0.00 0.00 0.00 94 1008.4
20260831080030 53 94 0.0 0.0 0.00 0.00 0.00 94 1008.4
20260831074523 53 94 0.0 0.0 0.00 0.00 0.00 93 1008.6
20260831073022 53 94 0.0 0.0 0.00 0.00 0.00 93 1008.6
20260831071519 53 94 0.0 0.0 0.00 0.00 0.00 93 1008.5
20260831070018 54 94 0.0 0.0 0.00 0.00 0.00 93 1008.4
20260831064515 54 94 0.0 0.0 0.00 0.00 0.00 93 1008.6
20260831063013 53 94 0.0 0.0 0.00 0.00 0.00 92 1008.8
20260831061517 54 94 0.0 0.0 0.00 0.00 0.00 92 1009.0
20260831060011 54 94 0.0 0.0 0.00 0.00 0.00 92 1009.1
20260831054514 54 94 0.0 0.0 0.00 0.00 0.00 92 1009.2
20260831053011 54 94 0.0 0.0 0.00 0.00 0.00 92 1009.3
20260831051513 54 162 0.0 0.0 0.00 0.00 0.00 91 1009.4
20260831050010 54 163 0.0 1.0 0.00 0.00 0.00 92 1009.5
20260831044510 54 163 0.0 2.0 0.00 0.00 0.00 91 1009.6
20260831043008 54 163 0.0 2.0 0.00 0.00 0.00 91 1009.6
20260831041509 54 163 0.0 1.0 0.00 0.00 0.00 90 1009.3
20260831040018 55 163 0.0 1.0 0.00 0.00 0.00 89 1009.3
20260831034507 56 163 0.0 1.0 0.00 0.00 0.00 87 1009.2
20260831033007 57 163 0.0 2.0 0.00 0.00 0.00 86 1009.1
20260831031507 57 163 0.0 1.0 0.00 0.00 0.00 86 1009.1
20260831030006 58 182 0.0 2.0 0.00 0.00 0.00 83 1009.1
20260831024506 59 182 0.0 1.0 0.00 0.00 0.00 83 1009.0
20260831023004 60 183 0.0 1.0 0.00 0.00 0.00 82 1009.0
20260831021557 61 183 0.0 2.0 0.00 0.00 0.00 80 1009.0
20260831020053 62 182 0.0 2.0 0.00 0.00 0.00 78 1008.9
20260831014549 62 190 0.0 1.0 0.00 0.00 0.00 77 1009.0
20260831013102 65 188 0.0 4.0 0.00 0.00 0.00 75 1009.0
20260831011550 66 227 1.0 4.0 0.00 0.00 0.00 73 1009.0
20260831010047 68 164 1.0 5.0 0.00 0.00 0.00 71 1009.0
20260831004547 69 202 1.0 3.0 0.00 0.00 0.00 69 1009.1
20260831003047 70 196 2.0 5.0 0.00 0.00 0.00 66 1009.2
20260831001545 72 154 0.0 3.0 0.00 0.00 0.00 66 1009.2
20260831000045 74 198 2.0 4.0 0.00 0.00 0.00 62 1009.1
20260830234547 74 144 0.0 2.0 0.00 0.00 0.00 66 1009.2
20260830233042 75 100 0.0 3.0 0.00 0.00 0.00 65 1009.4
20260830231553 75 199 1.0 4.0 0.00 0.00 0.00 59 1009.4
20260830230045 76 210 1.0 3.0 0.00 0.00 0.00 60 1009.6
20260830224544 76 171 1.0 4.0 0.00 0.00 0.00 63 1009.6
20260830223036 77 167 1.0 5.0 0.00 0.00 0.00 57 1009.7
20260830221535 78 194 0.0 4.0 0.00 0.00 0.00 59 1009.9
20260830220033 77 195 0.0 4.0 0.00 0.00 0.00 62 1010.0
20260830214631 77 234 2.0 4.0 0.00 0.00 0.00 56 1010.0
20260830213029 77 191 1.0 4.0 0.00 0.00 0.00 62 1010.3
20260830211526 76 161 1.0 3.0 0.00 0.00 0.00 59 1010.4
20260830210025 76 182 1.0 3.0 0.00 0.00 0.00 57 1010.4
20260830204522 74 236 1.0 4.0 0.00 0.00 0.00 58 1010.5
20260830203023 74 232 1.0 4.0 0.00 0.00 0.00 61 1010.6
20260830201533 72 228 0.0 4.0 0.00 0.00 0.00 56 1010.9